Weather History for Dayton, OH

Change the Weather History Date:

Monday, January 13, 2014

  Actual Average Record
Temperature  
Mean Temperature 47 °F 27 °F  
Max Temperature 51 °F 34 °F 66 °F (1995)
Min Temperature 42 °F 20 °F -9 °F (1912)
Degree Days  
Heating Degree Days 18 38  
Month to date heating degree days 512 488  
Since 1 July heating degree days 2631 2647  
Cooling Degree Days 0 0  
Month to date cooling degree days 0 0  
Year to date cooling degree days 0 0  
Moisture  
Dew Point 38 °F    
Average Humidity 75    
Maximum Humidity 93    
Minimum Humidity 56    
Precipitation  
Precipitation 0.05 in 0.09 in 1.14 in (1910)
Month to date precipitation 1.96 1.23  
Year to date precipitation 1.96 1.23  
Snow  
Snow 0.00 in 0.30 in 4.40 in (1982)
Month to date snowfall 8.1 3.2  
Since 1 July snowfall 22.7 8.7  
Snow Depth 0.00 in    
Sea Level Pressure  
Sea Level Pressure 29.75 in    
Wind  
Wind Speed 15 mph (SSW)    
Max Wind Speed 26 mph    
Max Gust Speed 35 mph    
Visibility 9 miles    
Events Rain    
T = Trace of Precipitation, MM = Missing Value Source: NWS Daily Summary

Daily Weather History Graph

Daily Weather History Graph

Search for Another Location

Airport:

Trip Planner

Search our weather history database for the weather conditions in past years. The results will help you decide how hot, cold, wet, or windy it might be!

Date:

Astronomy

Jan. 13, 2014 Rise Set
Actual Time 7:57 AM EST 5:34 PM EST
Civil Twilight 7:27 AM EST 6:04 PM EST
Nautical Twilight 6:54 AM EST 6:37 PM EST
Astronomical Twilight 6:21 AM EST 7:09 PM EST
Moon 3:48 PM EST (1/13) 5:45 AM EST (1/13)
Length of Visible Light 10h 36m
Length of Day
9h 36m
Waxing Gibbous, 95% of the Moon is Illuminated
Jan 13
Waxing Gibbous
Jan 15
Full
Jan 24
Last Quarter
Jan 30
New
Feb 6
First Quarter

Hourly Weather History & Observations

Time (EST) Temp. Windchill Dew Point Humidity Pressure Visibility Wind Dir Wind Speed Gust Speed Precip Events Conditions
12:56 AM 43.0 °F 35.4 °F 30.0 °F 60% 29.86 in 10.0 mi South 16.1 mph 23.0 mph N/A   Clear
1:56 AM 43.0 °F 36.0 °F 28.9 °F 58% 29.87 in 10.0 mi South 13.8 mph - N/A   Clear
2:56 AM 42.1 °F 35.7 °F 30.0 °F 62% 29.86 in 10.0 mi South 11.5 mph - N/A   Clear
3:56 AM 42.1 °F 34.9 °F 30.0 °F 62% 29.84 in 10.0 mi South 13.8 mph - N/A   Clear
4:56 AM 44.1 °F 37.7 °F 30.0 °F 58% 29.83 in 10.0 mi South 12.7 mph - N/A   Overcast
5:56 AM 45.0 °F 37.9 °F 30.0 °F 56% 29.81 in 10.0 mi South 16.1 mph - N/A   Overcast
6:56 AM 45.0 °F 38.5 °F 30.9 °F 58% 29.79 in 10.0 mi South 13.8 mph 25.3 mph N/A   Mostly Cloudy
7:56 AM 44.1 °F 37.4 °F 30.9 °F 60% 29.76 in 10.0 mi South 13.8 mph - N/A   Mostly Cloudy
8:56 AM 46.0 °F 39.0 °F 32.0 °F 58% 29.78 in 10.0 mi South 17.3 mph 24.2 mph N/A   Overcast
9:56 AM 48.0 °F - 33.1 °F 56% 29.76 in 10.0 mi South 20.7 mph 27.6 mph N/A   Overcast
10:56 AM 50.0 °F - 35.1 °F 57% 29.75 in 10.0 mi SSW 26.5 mph 33.4 mph N/A   Overcast
11:56 AM 50.0 °F - 37.9 °F 63% 29.74 in 10.0 mi SSW 23.0 mph 33.4 mph N/A   Overcast
12:56 PM 51.1 °F - 39.0 °F 63% 29.72 in 10.0 mi SW 21.9 mph 29.9 mph N/A   Overcast
1:54 PM 51.8 °F - 39.2 °F 62% 29.70 in 10.0 mi SSW 18.4 mph 25.3 mph N/A   Overcast
1:56 PM 51.1 °F - 39.0 °F 63% 29.71 in 10.0 mi SSW 17.3 mph 25.3 mph N/A   Overcast
2:56 PM 51.1 °F - 39.9 °F 66% 29.70 in 10.0 mi SSW 15.0 mph - N/A   Overcast
3:56 PM 50.0 °F - 42.1 °F 74% 29.70 in 10.0 mi SSW 16.1 mph 21.9 mph 0.00 in   Overcast
4:56 PM 48.0 °F - 45.0 °F 89% 29.71 in 8.0 mi SSW 13.8 mph - 0.02 in Rain Light Rain
5:13 PM 48.2 °F - 44.6 °F 87% 29.69 in 10.0 mi SSW 11.5 mph - 0.00 in   Overcast
5:34 PM 48.2 °F - 44.6 °F 87% 29.69 in 5.0 mi SSW 15.0 mph - 0.00 in Rain Light Rain
5:56 PM 46.9 °F - 45.0 °F 93% 29.70 in 5.0 mi SSW 11.5 mph - 0.01 in Rain Light Rain
6:56 PM 46.9 °F - 45.0 °F 93% 29.71 in 6.0 mi SW 12.7 mph - 0.01 in Rain Light Rain
7:04 PM 46.4 °F 41.1 °F 44.6 °F 93% 29.70 in 5.0 mi SW 11.5 mph - N/A   Overcast
7:35 PM 46.4 °F 41.1 °F 44.6 °F 93% 29.72 in 10.0 mi SSW 11.5 mph - N/A   Overcast
7:56 PM 46.9 °F - 45.0 °F 93% 29.74 in 6.0 mi SW 11.5 mph - 0.00 in Rain Light Rain
8:29 PM 46.4 °F 41.5 °F 44.6 °F 93% 29.72 in 10.0 mi WSW 10.4 mph - 0.00 in   Overcast
8:56 PM 46.9 °F - 45.0 °F 93% 29.73 in 5.0 mi WSW 11.5 mph - 0.00 in   Overcast
9:09 PM 46.4 °F 41.5 °F 44.6 °F 93% 29.72 in 6.0 mi WSW 10.4 mph - N/A   Overcast
9:56 PM 44.1 °F 39.0 °F 42.1 °F 93% 29.74 in 5.0 mi WSW 9.2 mph - N/A   Mostly Cloudy
10:56 PM 45.0 °F 38.9 °F 43.0 °F 93% 29.75 in 8.0 mi West 12.7 mph - N/A   Mostly Cloudy
11:56 PM 44.1 °F 37.1 °F 39.0 °F 82% 29.76 in 10.0 mi West 15.0 mph - N/A   Mostly Cloudy